sat.trackr.live / text

‹ back to catalog

IRIDIUM 161

NORAD 43478 · 2018-047C

PAYLOAD ACTIVE UNKNOWN

§ Identity

Operator
Country
US
Launch date
2018-05-22
Launch site
AFWTR
Launch vehicle
Mass (kg)
RCS (m²)

Purposes: comms

External: N2YO · Heavens-Above · Gunter

§ Orbital elements

Epoch: 2026-09-13T03:35:44.977632Z

Period
99.77 min
Inclination
86.4458°
Eccentricity
0.0002261
Mean motion
14.43279724 rev/d
Perigee alt
746.1 km
Apogee alt
749.3 km
Semi-major
7,125.8 km
B*
7.3742e-5
RAAN
51.6584°
Arg perigee
95.9719°
Mean anomaly
264.1740°
Rev number
43,782

§ Raw data

IRIDIUM 1611 43478U 18047C   26256.14982613  .00000268  00000+0  73742-4 0  99932 43478  86.4458  51.6584 0002261  95.9719 264.1740 14.43279724437824

JSON: /api/v1/satellites/43478 · /tle

For live sub-satellite position, see the globe view (requires WebGL).

§ Visibility from observer

Set your observer location to see the next 7 days of passes ≥ 10°. The values pass through the URL so the page stays shareable.

No JS? Fill the form by hand. The geolocation button needs JavaScript.